Location: Culleoka
(33.1312°N, 96.4919°W)
Time: 04:30:09
(UTC+00:00)

Cosmos 1328 Rocket - Visible Passes

Search period start: 26 June 2022 00:00
Search period end: 06 July 2022 00:00
Orbit: 602 x 625 km, 82.5° (Epoch: 25 June)

Date Brightness Start Highest point End Pass type
(mag) Time Alt. Az. Time Alt. Az. Time Alt. Az.
26 Jun 3.5 09:52:29 10° N 09:56:55 85° W 10:01:17 10° S visible
27 Jun 6.4 08:32:44 10° NE 08:34:32 12° ENE 08:36:20 10° E visible
27 Jun 4.0 10:08:18 10° NNW 10:12:29 43° W 10:16:17 12° SSW visible
28 Jun 5.7 08:46:53 10° NNE 08:50:22 23° ENE 08:53:50 10° SE visible
28 Jun 4.8 10:24:32 10° NW 10:27:58 23° W 10:30:58 12° SW visible
29 Jun 4.6 09:01:55 10° N 09:06:07 42° E 09:08:46 20° SE visible
29 Jun 5.5 10:41:44 10° WNW 10:43:23 12° W 10:45:02 10° WSW visible
30 Jun 3.5 09:17:21 10° N 09:21:47 84° E 09:23:37 35° S visible
01 Jul 6.4 07:58:20 10° ENE 07:59:21 11° ENE 08:00:21 10° E visible
01 Jul 3.8 09:33:07 10° NNW 09:37:22 49° W 09:38:31 38° SW visible
02 Jul 5.7 08:11:57 10° NNE 08:15:12 20° ENE 08:16:29 18° E visible
02 Jul 4.6 09:49:15 10° NW 09:52:52 25° W 09:53:29 24° WSW visible
03 Jul 4.7 08:26:53 10° NNE 08:30:58 37° E 08:31:30 35° E visible
03 Jul 5.4 10:06:08 10° WNW 10:08:17 14° W 10:08:30 13° W visible
04 Jul 3.6 08:42:14 10° N 08:46:32 73° ENE 08:46:32 73° ENE visible
05 Jul 3.9 08:57:56 10° NNW 09:01:38 51° WNW 09:01:38 51° WNW visible
